Location: Unspecified
(22.6800°N, 112.2000°E)
Time: 11:41:34
(UTC+08:00)

Tiros 1 despin weight - Pass Details

Date: 06 August 2021
Orbit: 593 x 641 km, 48.2° (Epoch: 26 September)

Event Time Altitude Azimuth Distance (km) Brightness Sun altitude
Rises 20:37:41 0° 287° (WNW) 2,918 ? -19.5°
Reaches altitude 10° 20:41:24 10° 257° (WSW) 1,998 ? -20.3°
Maximum altitude 20:43:11 12° 234° (SW) 1,854 ? -20.6°
Drops below altitude 10° 20:44:59 10° 211° (SSW) 1,984 ? -21.0°
Enters shadow 20:46:21 - 196° (SSW) 2,246 ? -21.3°
